Back to catalog

EUTE 16B

HB 4

AliveCommunicationsGEO
NORAD 25237·PAYLOAD·🇪🇺 EU

Launched Feb 27, 1998 from Guiana Space Centre

Loading…

TLE

FreshSource: Space-Track

Epoch: Sep 14, 2026, 10:41 UTC

1 25237U 98013A   26257.44555793 -.00000001  00000-0  00000-0 0  9996
2 25237  11.2474  45.4641 0001353 213.8584 319.9137  0.98274712 41106

Track EUTE 16B in real time with AllMySat

Download on the App Store